Weather History for KRDG - November, 2012

Change the Weather History Date:

Monday, November 5, 2012

  Actual Average Record
Temperature  
Mean Temperature 39 °F 48 °F  
Max Temperature 43 °F 58 °F 79 °F (1975)
Min Temperature 35 °F 38 °F 22 °F (1991)
Degree Days  
Heating Degree Days 26 17  
Month to date heating degree days 109 83  
Since 1 July heating degree days 446 521  
Cooling Degree Days 0 0  
Month to date cooling degree days 0 0  
Year to date cooling degree days 1281 896  
Moisture  
Dew Point 25 °F    
Average Humidity 57    
Maximum Humidity 64    
Minimum Humidity 49    
Precipitation  
Precipitation 0.00 in 0.12 in 1.40 in (1896)
Month to date precipitation 0.00 0.56  
Year to date precipitation 35.02 37.08  
Sea Level Pressure  
Sea Level Pressure 30.08 in    
Wind  
Wind Speed 9 mph (North)    
Max Wind Speed 15 mph    
Max Gust Speed 21 mph    
Visibility 12 miles    
Events      
T = Trace of Precipitation, MM = Missing Value Source: NWS Daily Summary

Daily Weather History Graph

Daily Weather History Graph

Search for Another Location

Airport or City:

Trip Planner

Search our weather history database for the weather conditions in past years. The results will help you decide how hot, cold, wet, or windy it might be!

Date:

Astronomy

Nov. 05, 2012 Rise Set
Actual Time 6:38 AM EST 4:55 PM EST
Civil Twilight 6:10 AM EST 5:24 PM EST
Nautical Twilight 5:37 AM EST 5:56 PM EST
Astronomical Twilight 5:05 AM EST 6:28 PM EST
Moon 10:30 PM EST (11/5) 11:56 AM EST (11/5)
Length of Visible Light 11h 14m
Length of Day
10h 16m
Waning Gibbous, 63% of the Moon is Illuminated
Nov 5
Waning Gibbous
Nov 6
Last Quarter
Nov 13
New
Nov 20
First Quarter
Nov 28
Full

Hourly Weather History & Observations

Time (EST) Temp. Windchill Dew Point Humidity Pressure Visibility Wind Dir Wind Speed Gust Speed Precip Events Conditions
12:54 AM - - - N/A% 30.03 in - North - - N/A   Unknown
1:54 AM - - - N/A% 30.02 in - North - - N/A   Unknown
2:54 AM - - - N/A% 30.02 in - North - - N/A   Unknown
3:54 AM - - - N/A% 30.03 in - North - - N/A   Unknown
4:54 AM - - - N/A% 30.04 in - North - - N/A   Unknown
5:54 AM - - - N/A% 30.05 in - North - - N/A   Unknown
6:54 AM - - - N/A% 30.06 in - North - - N/A   Unknown
6:55 AM 35.6 °F 30.7 °F 24.8 °F 65% 30.06 in 10.0 mi North 5.8 mph - N/A   Overcast
7:50 AM 37.4 °F 32.1 °F 24.8 °F 60% 30.07 in 20.0 mi NNW 6.9 mph - N/A   Overcast
7:54 AM - - - N/A% 30.07 in - North - - N/A   Unknown
8:53 AM 37.4 °F 29.8 °F 24.8 °F 60% 30.10 in 10.0 mi North 11.5 mph 18.4 mph N/A   Overcast
8:54 AM - - - N/A% 30.08 in - North - - N/A   Unknown
9:50 AM 37.4 °F 30.3 °F 26.6 °F 65% 30.09 in 20.0 mi NNW 10.4 mph 17.3 mph N/A   Overcast
9:54 AM - - - N/A% 30.09 in - North - - N/A   Unknown
10:54 AM - - - N/A% 30.09 in - North - - N/A   Unknown
11:00 AM 39.2 °F 32.0 °F 26.6 °F 61% 30.10 in 10.0 mi North 11.5 mph - N/A   Overcast
11:54 AM - - - N/A% 30.08 in - North - - N/A   Unknown
12:54 PM 41.0 °F 35.2 °F 27.0 °F 57% 30.06 in 10.0 mi NNW 9.2 mph - N/A   Unknown
12:56 PM 41.0 °F 35.2 °F 26.6 °F 57% 30.06 in 20.0 mi North 9.2 mph 18.4 mph N/A   Overcast
1:54 PM 42.1 °F 36.1 °F 26.1 °F 53% 30.06 in 10.0 mi NNW 10.4 mph 20.7 mph N/A   Overcast
2:54 PM 42.1 °F 35.7 °F 26.1 °F 53% 30.07 in 10.0 mi NNW 11.5 mph - N/A   Overcast
3:54 PM 42.1 °F 34.5 °F 25.0 °F 51% 30.07 in 10.0 mi NNW 15.0 mph - N/A   Overcast
4:54 PM 41.0 °F 34.3 °F 25.0 °F 53% 30.09 in 10.0 mi NW 11.5 mph - N/A   Overcast
5:54 PM 39.9 °F 33.4 °F 23.0 °F 51% 30.11 in 10.0 mi NNW 10.4 mph - N/A   Overcast
6:54 PM 39.0 °F 34.0 °F 24.1 °F 55% 30.13 in 10.0 mi NNW 6.9 mph - N/A   Overcast
7:54 PM 37.9 °F 34.4 °F 24.1 °F 57% 30.13 in 10.0 mi North 4.6 mph - N/A   Overcast
8:54 PM 39.0 °F 34.8 °F 24.1 °F 55% 30.16 in 10.0 mi NNE 5.8 mph - N/A   Overcast
9:54 PM 37.9 °F 35.5 °F 23.0 °F 55% 30.17 in 10.0 mi NE 3.5 mph - N/A   Overcast
10:54 PM 37.0 °F 31.6 °F 21.9 °F 54% 30.17 in 10.0 mi Variable 6.9 mph - N/A   Overcast
11:54 PM 35.1 °F 29.3 °F 21.0 °F 57% 30.19 in 10.0 mi NNE 6.9 mph - N/A   Overcast